Weather in Burminka

Russia / Ryazan Oblast     53°34′52″N   40°14′55″E
temp.,
°C
wind,
m/s
gust,
m/s
humid.,
%
clouds,
%
prec.,
mm/h
press.,
hPa
HPBL,
m
25 february, thu
thu2500:00−15ssw51095100 0.4 1033354
03:00−14ssw61194100 0.6 1030369
06:00−12ssw61194100 0.6 1026353
09:00−9ssw71195100 1.9 1023387
12:00−2sw71397100 2.4 1019620
15:00+2wsw715100100 3.8 1016410
18:00+2wnw613100100 0.1 1015368
21:00+2wnw51099100 0.1 1016234
26 february, fri
fri2600:00+1wnw4999100 0.0 1016240
03:00+1w41099100 0.0 1016233
06:00+1w51299100 0.2 1014292
09:00+2w512100100 0.4 1013356
12:00+2w613100100 0.0 1011312
15:00+2w715100100 0.1 1009465
18:00+2wsw716100100 0.1 1007463
21:00+2w61598100 0.1 1007589
27 february, sat
sat2700:00+2w7149291 0.0 1006551
03:00+1w6148995 0.1 1005567
06:000w7139799 0.1 1004589
09:000w61198100 0.1 1004574
12:00+1w61198100 0.1 1003639
15:00+1wnw71299100 0.1 1003655
18:000wnw7139798 0.2 1004582
21:00−2n5109299 0.8 1007622
28 february, sun
sun2800:00−7n41193100 0.0 1009415
03:00−9n399294 0.0 1011286
06:00−9nnw3895100 0.1 1013352
09:00−8nnw4893100 0.1 1015498
12:00−7nnw589198 0.0 1016505
15:00−6nnw589099 0.1 1017615
18:00−6nnw4994100 0.1 1018499
21:00−8n359698 0.1 1021123
1 march, mon
mon100:00−8n369692 0.1 1022144
03:00−9nnw389689 0.1 1024185
06:00−10nnw349631 0.0 102589
09:00−9nnw369749 0.0 1027202
12:00−6nw359396 0.1 1028425
15:00−4wnw358896 0.1 1028628
18:00−6w3693100 0.0 1027176
21:00−7wsw489398 0.0 1027181